Location: Milano
(45.4670°N, 9.2000°E)
Time: 21:15:08
(UTC+02:00)

ISS - Pass Details

Date: 21 May 2021
Orbit: 417 x 422 km, 51.6° (Epoch: 14 June)

Event Time Altitude Azimuth Distance (km) Brightness Sun altitude
Rises 22:06:38 0° 275° (W) 2,362 0.9 -10.9°
Reaches altitude 10° 22:08:54 10° 287° (WNW) 1,500 0.1 -11.2°
Maximum altitude 22:11:55 30° 351° (N) 783 -1.8 -11.6°
Drops below altitude 10° 22:14:57 10° 55° (NE) 1,505 -1.0 -11.9°
Sets 22:17:13 0° 66° (ENE) 2,371 -0.1 -12.2°
